Location: Newark
(48.1500°N, 13.1167°E)
Time: 23:52:50
(UTC+00:00)

ISS - Pass Details

Date: 23 September 2021
Orbit: 417 x 423 km, 51.6° (Epoch: 18 October)

Event Time Altitude Azimuth Distance (km) Brightness Sun altitude
Rises 19:42:00 0° 284° (WNW) 2,366 1.2 -26.0°
Reaches altitude 10° 19:44:09 10° 291° (WNW) 1,503 0.0 -26.4°
Enters shadow 19:45:53 26° 307° (NW) 872 -1.5 -26.6°
